| time (UTC) | temp F | wind direction | speed MPH | gust MPH | rain 1hr in | rain 24hr in | rain mn in | humidity % | barometer mb |
| 20260509090952 | 59 | 119 | 2.0 | 2.0 | 0.00 | 0.00 | 0.00 | 94 | 1012.7 |
| 20260509090450 | 58 | 60 | 1.0 | 2.0 | 0.00 | 0.00 | 0.00 | 94 | 1012.6 |
| 20260509085947 | 58 | 46 | 1.0 | 2.0 | 0.00 | 0.00 | 0.00 | 95 | 1012.5 |
| 20260509085444 | 58 | 98 | 1.0 | 2.0 | 0.00 | 0.00 | 0.00 | 95 | 1012.5 |
| 20260509084941 | 58 | 97 | 2.0 | 2.0 | 0.00 | 0.00 | 0.00 | 95 | 1012.5 |
| 20260509084437 | 58 | 101 | 2.0 | 2.0 | 0.00 | 0.00 | 0.00 | 95 | 1012.5 |
| 20260509083935 | 58 | 69 | 0.0 | 1.0 | 0.00 | 0.00 | 0.00 | 95 | 1012.4 |
| 20260509083432 | 58 | 103 | 2.0 | 2.0 | 0.00 | 0.00 | 0.00 | 95 | 1012.3 |
| 20260509082929 | 58 | 103 | 0.0 | 2.0 | 0.00 | 0.00 | 0.00 | 95 | 1012.3 |
| 20260509082426 | 58 | 44 | 0.0 | 1.0 | 0.00 | 0.00 | 0.00 | 95 | 1012.5 |
| 20260509081923 | 58 | 34 | 1.0 | 1.0 | 0.00 | 0.00 | 0.00 | 95 | 1012.5 |
| 20260509081420 | 57 | 99 | 2.0 | 2.0 | 0.00 | 0.00 | 0.00 | 95 | 1012.4 |
| 20260509080917 | 57 | 99 | 1.0 | 1.0 | 0.00 | 0.00 | 0.00 | 95 | 1012.5 |
| 20260509080415 | 57 | 116 | 1.0 | 2.0 | 0.00 | 0.00 | 0.00 | 95 | 1012.4 |
| 20260509075913 | 57 | 63 | 1.0 | 2.0 | 0.00 | 0.00 | 0.00 | 95 | 1012.3 |
| 20260509075410 | 57 | 101 | 1.0 | 2.0 | 0.00 | 0.00 | 0.00 | 96 | 1012.1 |
| 20260509074908 | 57 | 104 | 1.0 | 2.0 | 0.00 | 0.00 | 0.00 | 96 | 1012.4 |
| 20260509074405 | 57 | 48 | 0.0 | 2.0 | 0.00 | 0.00 | 0.00 | 96 | 1012.2 |
| 20260509073901 | 57 | 50 | 0.0 | 2.0 | 0.00 | 0.00 | 0.00 | 96 | 1012.0 |
| 20260509073358 | 57 | 71 | 0.0 | 1.0 | 0.00 | 0.00 | 0.00 | 96 | 1012.2 |
| 20260509072854 | 57 | 36 | 1.0 | 2.0 | 0.00 | 0.00 | 0.00 | 96 | 1012.3 |
| 20260509072351 | 57 | 46 | 1.0 | 2.0 | 0.00 | 0.00 | 0.00 | 95 | 1012.1 |
| 20260509071847 | 57 | 33 | 2.0 | 2.0 | 0.00 | 0.00 | 0.00 | 95 | 1012.1 |
| 20260509071344 | 57 | 39 | 2.0 | 2.0 | 0.00 | 0.00 | 0.00 | 95 | 1011.9 |
| 20260509070842 | 57 | 63 | 2.0 | 2.0 | 0.00 | 0.00 | 0.00 | 95 | 1012.1 |
| 20260509070338 | 57 | 89 | 0.0 | 2.0 | 0.00 | 0.00 | 0.00 | 95 | 1012.2 |
| 20260509065835 | 57 | 107 | 0.0 | 2.0 | 0.00 | 0.00 | 0.00 | 95 | 1012.3 |
| 20260509065331 | 57 | 84 | 1.0 | 2.0 | 0.00 | 0.00 | 0.00 | 95 | 1012.5 |
| 20260509064827 | 57 | 108 | 1.0 | 2.0 | 0.00 | 0.00 | 0.00 | 95 | 1012.6 |
| 20260509064325 | 57 | 78 | 2.0 | 2.0 | 0.00 | 0.00 | 0.00 | 95 | 1012.9 |
| 20260509063822 | 57 | 108 | 1.0 | 2.0 | 0.00 | 0.00 | 0.00 | 95 | 1012.8 |
| 20260509063318 | 57 | 92 | 2.0 | 2.0 | 0.00 | 0.00 | 0.00 | 95 | 1013.1 |
| 20260509062816 | 57 | 102 | 2.0 | 2.0 | 0.00 | 0.00 | 0.00 | 95 | 1013.0 |
| 20260509062313 | 57 | 109 | 2.0 | 2.0 | 0.00 | 0.00 | 0.00 | 95 | 1013.4 |
| 20260509061810 | 57 | 105 | 2.0 | 2.0 | 0.00 | 0.00 | 0.00 | 95 | 1013.6 |
| 20260509061308 | 57 | 109 | 0.0 | 2.0 | 0.00 | 0.00 | 0.00 | 95 | 1013.6 |
| 20260509060804 | 57 | 80 | 1.0 | 1.0 | 0.00 | 0.00 | 0.00 | 95 | 1013.8 |
| 20260509060301 | 57 | 50 | 0.0 | 1.0 | 0.00 | 0.00 | 0.00 | 95 | 1013.7 |
| 20260509055756 | 57 | 66 | 0.0 | 1.0 | 0.00 | 0.00 | 0.00 | 95 | 1013.9 |
| 20260509055252 | 57 | 54 | 1.0 | 1.0 | 0.00 | 0.00 | 0.00 | 95 | 1013.8 |
| 20260509054749 | 57 | 52 | 1.0 | 1.0 | 0.00 | 0.00 | 0.00 | 95 | 1013.7 |
| 20260509054246 | 56 | 64 | 0.0 | 2.0 | 0.00 | 0.00 | 0.00 | 95 | 1013.9 |
| 20260509053745 | 56 | 96 | 1.0 | 2.0 | 0.00 | 0.00 | 0.00 | 95 | 1013.7 |
| 20260509053241 | 56 | 73 | 1.0 | 2.0 | 0.00 | 0.00 | 0.00 | 95 | 1014.0 |
| 20260509052739 | 57 | 85 | 1.0 | 2.0 | 0.00 | 0.00 | 0.00 | 94 | 1013.8 |
| 20260509052237 | 57 | 105 | 2.0 | 2.0 | 0.00 | 0.00 | 0.00 | 94 | 1013.6 |
| 20260509051734 | 57 | 81 | 0.0 | 1.0 | 0.00 | 0.00 | 0.00 | 94 | 1013.8 |
| 20260509051232 | 57 | 82 | 1.0 | 1.0 | 0.00 | 0.00 | 0.00 | 94 | 1013.8 |
| 20260509050729 | 57 | 100 | 1.0 | 2.0 | 0.00 | 0.00 | 0.00 | 94 | 1013.7 |
| 20260509050225 | 57 | 89 | 0.0 | 1.0 | 0.00 | 0.00 | 0.00 | 94 | 1013.8 |
| 20260509045722 | 57 | 93 | 2.0 | 2.0 | 0.00 | 0.00 | 0.00 | 94 | 1013.8 |
| 20260509045219 | 57 | 52 | 1.0 | 2.0 | 0.00 | 0.00 | 0.00 | 94 | 1013.8 |
| 20260509044716 | 57 | 52 | 1.0 | 2.0 | 0.00 | 0.00 | 0.00 | 93 | 1013.7 |
| 20260509044214 | 57 | 86 | 1.0 | 2.0 | 0.00 | 0.00 | 0.00 | 93 | 1013.9 |
| 20260509043710 | 57 | 53 | 0.0 | 1.0 | 0.00 | 0.00 | 0.00 | 93 | 1014.0 |
| 20260509043206 | 57 | 57 | 2.0 | 2.0 | 0.00 | 0.00 | 0.00 | 93 | 1014.0 |
| 20260509042703 | 57 | 74 | 1.0 | 2.0 | 0.00 | 0.00 | 0.00 | 92 | 1014.0 |
| 20260509042159 | 57 | 83 | 1.0 | 2.0 | 0.00 | 0.00 | 0.00 | 92 | 1013.9 |
| 20260509041655 | 58 | 107 | 2.0 | 2.0 | 0.00 | 0.00 | 0.00 | 92 | 1014.0 |
| 20260509041153 | 58 | 40 | 1.0 | 2.0 | 0.00 | 0.00 | 0.00 | 92 | 1014.1 |
| 20260509040651 | 58 | 62 | 2.0 | 2.0 | 0.00 | 0.00 | 0.00 | 91 | 1014.2 |
| 20260509040148 | 58 | 29 | 2.0 | 2.0 | 0.00 | 0.00 | 0.00 | 91 | 1014.4 |
| 20260509035645 | 58 | 35 | 0.0 | 2.0 | 0.00 | 0.00 | 0.00 | 91 | 1014.1 |
| 20260509035141 | 58 | 47 | 2.0 | 2.0 | 0.00 | 0.00 | 0.00 | 91 | 1014.4 |
| 20260509034639 | 58 | 40 | 2.0 | 2.0 | 0.00 | 0.00 | 0.00 | 90 | 1014.3 |
| 20260509034136 | 58 | 62 | 1.0 | 2.0 | 0.00 | 0.00 | 0.00 | 90 | 1014.5 |
| 20260509033633 | 59 | 69 | 0.0 | 2.0 | 0.00 | 0.00 | 0.00 | 89 | 1014.6 |
| 20260509033130 | 59 | 103 | 1.0 | 2.0 | 0.00 | 0.00 | 0.00 | 89 | 1014.8 |
| 20260509032627 | 59 | 47 | 0.0 | 2.0 | 0.00 | 0.00 | 0.00 | 88 | 1014.9 |
| 20260509032124 | 59 | 36 | 1.0 | 2.0 | 0.00 | 0.00 | 0.00 | 88 | 1014.8 |
| 20260509031622 | 59 | 37 | 1.0 | 2.0 | 0.00 | 0.00 | 0.00 | 88 | 1014.8 |
| 20260509031119 | 59 | 74 | 1.0 | 2.0 | 0.00 | 0.00 | 0.00 | 87 | 1014.9 |
| 20260509030617 | 59 | 38 | 1.0 | 2.0 | 0.00 | 0.00 | 0.00 | 87 | 1014.8 |
| 20260509030114 | 60 | 60 | 1.0 | 2.0 | 0.00 | 0.00 | 0.00 | 86 | 1014.9 |
| 20260509025610 | 60 | 26 | 1.0 | 2.0 | 0.00 | 0.00 | 0.00 | 86 | 1014.8 |
| 20260509025106 | 60 | 89 | 0.0 | 1.0 | 0.00 | 0.00 | 0.00 | 86 | 1014.8 |
| 20260509024602 | 60 | 78 | 1.0 | 1.0 | 0.00 | 0.00 | 0.00 | 86 | 1015.0 |
| 20260509024058 | 60 | 93 | 1.0 | 2.0 | 0.00 | 0.00 | 0.00 | 85 | 1014.9 |
| 20260509023556 | 60 | 89 | 1.0 | 2.0 | 0.00 | 0.00 | 0.00 | 85 | 1015.1 |
| 20260509023052 | 60 | 97 | 0.0 | 2.0 | 0.00 | 0.00 | 0.00 | 84 | 1014.9 |
| 20260509022548 | 60 | 65 | 0.0 | 2.0 | 0.00 | 0.00 | 0.00 | 84 | 1014.9 |
| 20260509022047 | 60 | 31 | 1.0 | 2.0 | 0.00 | 0.00 | 0.00 | 84 | 1014.9 |
| 20260509021543 | 61 | 84 | 1.0 | 2.0 | 0.00 | 0.00 | 0.00 | 85 | 1014.7 |
| 20260509021040 | 61 | 78 | 1.0 | 2.0 | 0.00 | 0.00 | 0.00 | 84 | 1014.7 |
| 20260509020539 | 61 | 68 | 1.0 | 2.0 | 0.00 | 0.00 | 0.00 | 83 | 1014.9 |
| 20260509020035 | 61 | 50 | 0.0 | 2.0 | 0.00 | 0.00 | 0.00 | 83 | 1014.9 |
| 20260509015534 | 61 | 39 | 1.0 | 2.0 | 0.00 | 0.00 | 0.00 | 84 | 1014.7 |
| 20260509015031 | 61 | 32 | 0.0 | 2.0 | 0.00 | 0.00 | 0.00 | 84 | 1014.6 |
| 20260509014528 | 61 | 53 | 2.0 | 2.0 | 0.00 | 0.00 | 0.00 | 84 | 1014.6 |
| 20260509014024 | 61 | 93 | 0.0 | 2.0 | 0.00 | 0.00 | 0.00 | 83 | 1014.7 |
| 20260509013521 | 61 | 89 | 0.0 | 1.0 | 0.00 | 0.00 | 0.00 | 83 | 1014.4 |
| 20260509013016 | 61 | 77 | 1.0 | 1.0 | 0.00 | 0.00 | 0.00 | 84 | 1014.5 |
| 20260509012514 | 61 | 43 | 1.0 | 2.0 | 0.00 | 0.00 | 0.00 | 84 | 1014.5 |
| 20260509012010 | 61 | 82 | 1.0 | 2.0 | 0.00 | 0.00 | 0.00 | 85 | 1014.5 |
| 20260509011508 | 61 | 93 | 1.0 | 2.0 | 0.00 | 0.00 | 0.00 | 83 | 1014.6 |
| 20260509011005 | 61 | 33 | 1.0 | 2.0 | 0.00 | 0.00 | 0.00 | 82 | 1014.5 |
| 20260509010503 | 61 | 19 | 1.0 | 2.0 | 0.00 | 0.00 | 0.00 | 85 | 1014.5 |
| 20260509005959 | 62 | 92 | 1.0 | 2.0 | 0.00 | 0.00 | 0.00 | 84 | 1014.4 |
| 20260509005458 | 62 | 102 | 1.0 | 2.0 | 0.00 | 0.00 | 0.00 | 82 | 1014.3 |
| 20260509004957 | 62 | 77 | 0.0 | 2.0 | 0.00 | 0.00 | 0.00 | 82 | 1014.2 |
| 20260509004455 | 62 | 87 | 1.0 | 1.0 | 0.00 | 0.00 | 0.00 | 81 | 1014.3 |
| 20260509003952 | 62 | 94 | 1.0 | 2.0 | 0.00 | 0.00 | 0.00 | 81 | 1014.3 |
| 20260509003450 | 62 | 37 | 1.0 | 2.0 | 0.00 | 0.00 | 0.00 | 82 | 1014.5 |
| 20260509002947 | 62 | 21 | 1.0 | 2.0 | 0.00 | 0.00 | 0.00 | 82 | 1014.2 |
| 20260509002445 | 62 | 89 | 1.0 | 1.0 | 0.00 | 0.00 | 0.00 | 81 | 1014.3 |
| 20260509001942 | 62 | 86 | 0.0 | 1.0 | 0.00 | 0.00 | 0.00 | 81 | 1014.3 |
| 20260509001438 | 62 | 93 | 1.0 | 2.0 | 0.00 | 0.00 | 0.00 | 81 | 1014.5 |
| 20260509000935 | 62 | 82 | 2.0 | 3.0 | 0.00 | 0.00 | 0.00 | 81 | 1014.3 |
| 20260509000433 | 63 | 89 | 0.0 | 1.0 | 0.00 | 0.00 | 0.00 | 82 | 1014.2 |
| 20260508235928 | 63 | 96 | 1.0 | 2.0 | 0.00 | 0.00 | 0.00 | 84 | 1014.2 |
| 20260508235426 | 63 | 44 | 2.0 | 2.0 | 0.00 | 0.00 | 0.00 | 81 | 1014.4 |
| 20260508234923 | 63 | 36 | 0.0 | 1.0 | 0.00 | 0.00 | 0.00 | 81 | 1014.3 |
| 20260508234420 | 63 | 98 | 1.0 | 2.0 | 0.00 | 0.00 | 0.00 | 81 | 1014.3 |
| 20260508233918 | 64 | 5 | 0.0 | 2.0 | 0.00 | 0.00 | 0.00 | 81 | 1014.2 |
| 20260508233417 | 64 | 62 | 2.0 | 2.0 | 0.00 | 0.00 | 0.00 | 81 | 1014.3 |
| 20260508232913 | 64 | 109 | 1.0 | 2.0 | 0.00 | 0.00 | 0.00 | 80 | 1014.4 |
| 20260508232410 | 64 | 33 | 1.0 | 2.0 | 0.00 | 0.00 | 0.00 | 80 | 1014.2 |
| 20260508231908 | 64 | 86 | 1.0 | 2.0 | 0.00 | 0.00 | 0.00 | 79 | 1014.0 |
| 20260508231404 | 65 | 67 | 1.0 | 2.0 | 0.00 | 0.00 | 0.00 | 80 | 1014.1 |
| 20260508230901 | 65 | 33 | 1.0 | 2.0 | 0.00 | 0.00 | 0.00 | 78 | 1014.1 |
| 20260508230358 | 65 | 48 | 1.0 | 1.0 | 0.00 | 0.00 | 0.00 | 78 | 1014.0 |
| 20260508225855 | 65 | 94 | 0.0 | 2.0 | 0.00 | 0.00 | 0.00 | 78 | 1014.0 |
| 20260508225351 | 65 | 43 | 1.0 | 2.0 | 0.00 | 0.00 | 0.00 | 77 | 1014.3 |
| 20260508224850 | 65 | 20 | 1.0 | 2.0 | 0.00 | 0.00 | 0.00 | 77 | 1014.2 |
| 20260508224347 | 65 | 26 | 1.0 | 2.0 | 0.00 | 0.00 | 0.00 | 76 | 1014.3 |
| 20260508223844 | 65 | 31 | 1.0 | 2.0 | 0.00 | 0.00 | 0.00 | 76 | 1014.1 |
| 20260508223341 | 66 | 5 | 0.0 | 2.0 | 0.00 | 0.00 | 0.00 | 76 | 1014.2 |
| 20260508222839 | 66 | 9 | 1.0 | 1.0 | 0.00 | 0.00 | 0.00 | 74 | 1014.2 |
| 20260508222336 | 66 | 92 | 1.0 | 2.0 | 0.00 | 0.00 | 0.00 | 74 | 1014.1 |
| 20260508221833 | 66 | 55 | 0.0 | 2.0 | 0.00 | 0.00 | 0.00 | 73 | 1014.2 |
| 20260508221328 | 66 | 67 | 0.0 | 2.0 | 0.00 | 0.00 | 0.00 | 74 | 1014.2 |
| 20260508220825 | 66 | 10 | 2.0 | 2.0 | 0.00 | 0.00 | 0.00 | 72 | 1014.1 |
| 20260508220321 | 66 | 98 | 1.0 | 2.0 | 0.00 | 0.00 | 0.00 | 76 | 1014.3 |
| 20260508215818 | 66 | 23 | 1.0 | 2.0 | 0.00 | 0.00 | 0.00 | 70 | 1014.6 |
| 20260508215314 | 67 | 87 | 1.0 | 2.0 | 0.00 | 0.00 | 0.00 | 69 | 1014.2 |
| 20260508214812 | 67 | 42 | 1.0 | 2.0 | 0.00 | 0.00 | 0.00 | 68 | 1014.3 |
| 20260508214309 | 67 | 11 | 2.0 | 2.0 | 0.00 | 0.00 | 0.00 | 66 | 1014.4 |
| 20260508213805 | 67 | 11 | 1.0 | 2.0 | 0.00 | 0.00 | 0.00 | 66 | 1014.2 |
| 20260508213302 | 67 | 11 | 1.0 | 2.0 | 0.00 | 0.00 | 0.00 | 67 | 1014.1 |
| 20260508212758 | 68 | 1 | 1.0 | 2.0 | 0.00 | 0.00 | 0.00 | 68 | 1014.2 |
| 20260508212254 | 68 | 71 | 2.0 | 2.0 | 0.00 | 0.00 | 0.00 | 67 | 1014.3 |
| 20260508211750 | 68 | 29 | 2.0 | 2.0 | 0.00 | 0.00 | 0.00 | 67 | 1014.5 |
| 20260508211246 | 68 | 46 | 2.0 | 2.0 | 0.00 | 0.00 | 0.00 | 62 | 1014.2 |
| 20260508210744 | 67 | 103 | 0.0 | 2.0 | 0.00 | 0.00 | 0.00 | 67 | 1014.4 |
| 20260508210241 | 67 | 81 | 1.0 | 2.0 | 0.00 | 0.00 | 0.00 | 67 | 1014.3 |
| 20260508205738 | 67 | 5 | 2.0 | 2.0 | 0.00 | 0.00 | 0.00 | 66 | 1014.3 |
| 20260508205234 | 68 | 16 | 2.0 | 2.0 | 0.00 | 0.00 | 0.00 | 62 | 1014.3 |
| 20260508204730 | 68 | 11 | 2.0 | 2.0 | 0.00 | 0.00 | 0.00 | 60 | 1014.3 |
| 20260508204227 | 68 | 359 | 1.0 | 2.0 | 0.00 | 0.00 | 0.00 | 66 | 1014.3 |
| 20260508203723 | 69 | 15 | 2.0 | 2.0 | 0.00 | 0.00 | 0.00 | 61 | 1014.5 |
| 20260508203219 | 69 | 62 | 1.0 | 2.0 | 0.00 | 0.00 | 0.00 | 59 | 1014.6 |
| 20260508202715 | 69 | 4 | 1.0 | 2.0 | 0.00 | 0.00 | 0.00 | 60 | 1014.5 |
| 20260508202213 | 69 | 92 | 1.0 | 2.0 | 0.00 | 0.00 | 0.00 | 54 | 1014.5 |
| 20260508201709 | 69 | 170 | 0.0 | 0.0 | 0.00 | 0.00 | 0.00 | 52 | 1014.4 |
| 20260508201206 | 69 | 89 | 0.0 | 2.0 | 0.00 | 0.00 | 0.00 | 55 | 1014.4 |
| 20260508200703 | 69 | 89 | 0.0 | 2.0 | 0.00 | 0.00 | 0.00 | 54 | 1014.4 |
| 20260508200159 | 69 | 89 | 2.0 | 2.0 | 0.00 | 0.00 | 0.00 | 59 | 1014.5 |
| 20260508195656 | 70 | 72 | 0.0 | 2.0 | 0.00 | 0.00 | 0.00 | 55 | 1014.7 |
| 20260508195152 | 70 | 52 | 1.0 | 2.0 | 0.00 | 0.00 | 0.00 | 51 | 1014.6 |
| 20260508194649 | 70 | 102 | 2.0 | 2.0 | 0.00 | 0.00 | 0.00 | 59 | 1014.7 |
| 20260508194146 | 70 | 89 | 0.0 | 3.0 | 0.00 | 0.00 | 0.00 | 53 | 1015.0 |
| 20260508193643 | 70 | 342 | 0.0 | 3.0 | 0.00 | 0.00 | 0.00 | 52 | 1014.9 |
| 20260508193139 | 71 | 55 | 2.0 | 2.0 | 0.00 | 0.00 | 0.00 | 53 | 1014.9 |
| 20260508192636 | 71 | 17 | 1.0 | 3.0 | 0.00 | 0.00 | 0.00 | 56 | 1015.0 |
| 20260508192134 | 71 | 66 | 0.0 | 2.0 | 0.00 | 0.00 | 0.00 | 52 | 1015.2 |
| 20260508191630 | 70 | 51 | 1.0 | 2.0 | 0.00 | 0.00 | 0.00 | 53 | 1015.6 |
| 20260508191127 | 71 | 97 | 2.0 | 2.0 | 0.00 | 0.00 | 0.00 | 50 | 1015.6 |
| 20260508190625 | 70 | 66 | 0.0 | 2.0 | 0.00 | 0.00 | 0.00 | 51 | 1015.5 |
| 20260508190121 | 70 | 63 | 2.0 | 3.0 | 0.00 | 0.00 | 0.00 | 53 | 1015.5 |
| 20260508185618 | 70 | 197 | 0.0 | 3.0 | 0.00 | 0.00 | 0.00 | 49 | 1015.4 |
| 20260508185115 | 70 | 103 | 2.0 | 4.0 | 0.00 | 0.00 | 0.00 | 51 | 1015.7 |
| 20260508184612 | 71 | 256 | 0.0 | 4.0 | 0.00 | 0.00 | 0.00 | 49 | 1015.7 |
| 20260508184109 | 71 | 125 | 4.0 | 5.0 | 0.00 | 0.00 | 0.00 | 48 | 1015.7 |
| 20260508183606 | 70 | 98 | 2.0 | 3.0 | 0.00 | 0.00 | 0.00 | 52 | 1015.8 |
| 20260508183102 | 71 | 100 | 3.0 | 3.0 | 0.00 | 0.00 | 0.00 | 54 | 1015.8 |
| 20260508182558 | 71 | 132 | 1.0 | 4.0 | 0.00 | 0.00 | 0.00 | 49 | 1016.0 |
| 20260508182055 | 71 | 233 | 3.0 | 4.0 | 0.00 | 0.00 | 0.00 | 48 | 1015.8 |
| 20260508181549 | 71 | 102 | 1.0 | 3.0 | 0.00 | 0.00 | 0.00 | 49 | 1015.8 |
| 20260508181048 | 71 | 123 | 0.0 | 4.0 | 0.00 | 0.00 | 0.00 | 47 | 1016.0 |
| 20260508180544 | 71 | 102 | 1.0 | 3.0 | 0.00 | 0.00 | 0.00 | 51 | 1016.1 |
| 20260508180040 | 71 | 97 | 2.0 | 3.0 | 0.00 | 0.00 | 0.00 | 48 | 1016.0 |
| 20260508175537 | 72 | 108 | 3.0 | 4.0 | 0.00 | 0.00 | 0.00 | 48 | 1016.1 |
| 20260508175034 | 72 | 45 | 2.0 | 3.0 | 0.00 | 0.00 | 0.00 | 48 | 1016.2 |
| 20260508174532 | 72 | 226 | 2.0 | 4.0 | 0.00 | 0.00 | 0.00 | 46 | 1016.1 |
| 20260508174028 | 71 | 106 | 1.0 | 2.0 | 0.00 | 0.00 | 0.00 | 50 | 1016.3 |
| 20260508173525 | 71 | 225 | 2.0 | 4.0 | 0.00 | 0.00 | 0.00 | 48 | 1016.1 |
| 20260508173021 | 71 | 255 | 5.0 | 5.0 | 0.00 | 0.00 | 0.00 | 48 | 1016.5 |
| 20260508172519 | 71 | 353 | 0.0 | 3.0 | 0.00 | 0.00 | 0.00 | 50 | 1016.4 |
| 20260508172015 | 71 | 151 | 4.0 | 5.0 | 0.00 | 0.00 | 0.00 | 46 | 1016.7 |
| 20260508171512 | 70 | 274 | 1.0 | 4.0 | 0.00 | 0.00 | 0.00 | 43 | 1016.9 |
| 20260508171008 | 70 | 237 | 2.0 | 4.0 | 0.00 | 0.00 | 0.00 | 50 | 1016.9 |
| 20260508170506 | 70 | 89 | 0.0 | 4.0 | 0.00 | 0.00 | 0.00 | 53 | 1016.7 |
| 20260508170002 | 70 | 122 | 0.0 | 5.0 | 0.00 | 0.00 | 0.00 | 54 | 1016.7 |
| 20260508165500 | 69 | 304 | 2.0 | 3.0 | 0.00 | 0.00 | 0.00 | 51 | 1017.1 |
| 20260508164956 | 69 | 120 | 2.0 | 3.0 | 0.00 | 0.00 | 0.00 | 54 | 1017.2 |
| 20260508164453 | 68 | 110 | 2.0 | 4.0 | 0.00 | 0.00 | 0.00 | 54 | 1017.3 |
| 20260508163950 | 69 | 6 | 3.0 | 5.0 | 0.00 | 0.00 | 0.00 | 53 | 1017.2 |
| 20260508163448 | 69 | 91 | 3.0 | 3.0 | 0.00 | 0.00 | 0.00 | 57 | 1017.3 |
| 20260508162943 | 69 | 78 | 2.0 | 4.0 | 0.00 | 0.00 | 0.00 | 53 | 1017.3 |
| 20260508162441 | 68 | 283 | 1.0 | 3.0 | 0.00 | 0.00 | 0.00 | 55 | 1017.6 |
| 20260508161938 | 68 | 88 | 4.0 | 4.0 | 0.00 | 0.00 | 0.00 | 56 | 1017.7 |
| 20260508161435 | 68 | 57 | 4.0 | 4.0 | 0.00 | 0.00 | 0.00 | 54 | 1017.9 |
| 20260508160932 | 68 | 62 | 2.0 | 4.0 | 0.00 | 0.00 | 0.00 | 55 | 1017.7 |
| 20260508160431 | 68 | 97 | 2.0 | 3.0 | 0.00 | 0.00 | 0.00 | 53 | 1017.9 |
| 20260508155926 | 68 | 332 | 2.0 | 4.0 | 0.00 | 0.00 | 0.00 | 53 | 1017.9 |
| 20260508155424 | 68 | 25 | 4.0 | 4.0 | 0.00 | 0.00 | 0.00 | 53 | 1018.0 |
| 20260508154921 | 68 | 100 | 0.0 | 3.0 | 0.00 | 0.00 | 0.00 | 54 | 1018.3 |
| 20260508154418 | 68 | 5 | 6.0 | 6.0 | 0.00 | 0.00 | 0.00 | 55 | 1018.2 |
| 20260508153915 | 68 | 19 | 2.0 | 3.0 | 0.00 | 0.00 | 0.00 | 56 | 1018.2 |
| 20260508153412 | 66 | 203 | 4.0 | 4.0 | 0.00 | 0.00 | 0.00 | 56 | 1018.3 |
| 20260508152908 | 66 | 84 | 2.0 | 3.0 | 0.00 | 0.00 | 0.00 | 58 | 1018.1 |
| 20260508152405 | 67 | 94 | 3.0 | 4.0 | 0.00 | 0.00 | 0.00 | 57 | 1018.2 |
| 20260508151901 | 66 | 120 | 1.0 | 3.0 | 0.00 | 0.00 | 0.00 | 61 | 1018.4 |
| 20260508151358 | 65 | 196 | 3.0 | 3.0 | 0.00 | 0.00 | 0.00 | 60 | 1018.4 |
| 20260508150854 | 65 | 105 | 3.0 | 6.0 | 0.00 | 0.00 | 0.00 | 63 | 1018.3 |
| 20260508150351 | 66 | 35 | 4.0 | 4.0 | 0.00 | 0.00 | 0.00 | 63 | 1018.4 |
| 20260508145847 | 65 | 295 | 1.0 | 3.0 | 0.00 | 0.00 | 0.00 | 60 | 1018.5 |
| 20260508145343 | 64 | 352 | 3.0 | 4.0 | 0.00 | 0.00 | 0.00 | 62 | 1018.5 |
| 20260508144840 | 64 | 110 | 1.0 | 3.0 | 0.00 | 0.00 | 0.00 | 64 | 1018.4 |
| 20260508144339 | 64 | 38 | 2.0 | 2.0 | 0.00 | 0.00 | 0.00 | 63 | 1018.4 |
| 20260508143836 | 64 | 131 | 0.0 | 2.0 | 0.00 | 0.00 | 0.00 | 62 | 1018.2 |
| 20260508143332 | 63 | 130 | 3.0 | 3.0 | 0.00 | 0.00 | 0.00 | 64 | 1018.4 |
| 20260508142829 | 63 | 290 | 2.0 | 3.0 | 0.00 | 0.00 | 0.00 | 67 | 1018.3 |
| 20260508142326 | 62 | 17 | 2.0 | 4.0 | 0.00 | 0.00 | 0.00 | 67 | 1018.3 |
| 20260508141823 | 61 | 48 | 3.0 | 3.0 | 0.00 | 0.00 | 0.00 | 70 | 1018.2 |
| 20260508141320 | 61 | 169 | 2.0 | 4.0 | 0.00 | 0.00 | 0.00 | 70 | 1018.4 |
| 20260508140817 | 61 | 139 | 5.0 | 5.0 | 0.00 | 0.00 | 0.00 | 68 | 1018.4 |
| 20260508140314 | 61 | 122 | 2.0 | 3.0 | 0.00 | 0.00 | 0.00 | 70 | 1018.2 |
| 20260508135810 | 60 | 101 | 2.0 | 3.0 | 0.00 | 0.00 | 0.00 | 71 | 1018.3 |
| 20260508135306 | 60 | 46 | 2.0 | 3.0 | 0.00 | 0.00 | 0.00 | 73 | 1018.4 |
| 20260508134801 | 60 | 4 | 2.0 | 4.0 | 0.00 | 0.00 | 0.00 | 73 | 1018.4 |
| 20260508134259 | 60 | 140 | 4.0 | 4.0 | 0.00 | 0.00 | 0.00 | 76 | 1018.6 |
| 20260508133756 | 60 | 88 | 1.0 | 2.0 | 0.00 | 0.00 | 0.00 | 80 | 1018.6 |
| 20260508133253 | 59 | 163 | 0.0 | 4.0 | 0.00 | 0.00 | 0.00 | 76 | 1018.6 |
| 20260508132751 | 59 | 350 | 2.0 | 3.0 | 0.00 | 0.00 | 0.00 | 80 | 1018.6 |
| 20260508132248 | 58 | 168 | 0.0 | 6.0 | 0.00 | 0.00 | 0.00 | 80 | 1018.5 |
| 20260508131744 | 58 | 110 | 1.0 | 2.0 | 0.00 | 0.00 | 0.00 | 85 | 1018.6 |
| 20260508131240 | 57 | 168 | 1.0 | 2.0 | 0.00 | 0.00 | 0.00 | 86 | 1018.4 |
| 20260508130737 | 56 | 65 | 0.0 | 2.0 | 0.00 | 0.00 | 0.00 | 89 | 1018.3 |
| 20260508130234 | 55 | 106 | 2.0 | 2.0 | 0.00 | 0.00 | 0.00 | 92 | 1018.3 |
| 20260508125730 | 54 | 65 | 0.0 | 1.0 | 0.00 | 0.00 | 0.00 | 94 | 1018.2 |
| 20260508125226 | 54 | 84 | 2.0 | 2.0 | 0.00 | 0.00 | 0.00 | 95 | 1018.4 |
| 20260508124725 | 53 | 92 | 2.0 | 2.0 | 0.00 | 0.00 | 0.00 | 95 | 1018.2 |
| 20260508124222 | 53 | 98 | 2.0 | 2.0 | 0.00 | 0.00 | 0.00 | 95 | 1018.3 |
| 20260508123720 | 52 | 100 | 2.0 | 2.0 | 0.00 | 0.00 | 0.00 | 96 | 1018.3 |
| 20260508123218 | 52 | 107 | 2.0 | 2.0 | 0.00 | 0.00 | 0.00 | 96 | 1018.3 |
| 20260508122713 | 51 | 101 | 2.0 | 2.0 | 0.00 | 0.00 | 0.00 | 96 | 1018.1 |
| 20260508122210 | 51 | 105 | 2.0 | 3.0 | 0.00 | 0.00 | 0.00 | 97 | 1018.0 |
| 20260508121708 | 51 | 99 | 2.0 | 3.0 | 0.00 | 0.00 | 0.00 | 97 | 1018.0 |
| 20260508121207 | 51 | 84 | 2.0 | 2.0 | 0.00 | 0.00 | 0.00 | 97 | 1017.7 |
| 20260508120703 | 51 | 108 | 2.0 | 3.0 | 0.00 | 0.00 | 0.00 | 98 | 1017.8 |
| 20260508120201 | 51 | 94 | 2.0 | 3.0 | 0.00 | 0.00 | 0.00 | 98 | 1017.7 |
| 20260508115659 | 51 | 78 | 1.0 | 2.0 | 0.00 | 0.00 | 0.00 | 98 | 1017.2 |
| 20260508115155 | 50 | 59 | 1.0 | 2.0 | 0.00 | 0.00 | 0.00 | 98 | 1017.4 |
| 20260508114652 | 50 | 84 | 1.0 | 2.0 | 0.00 | 0.00 | 0.00 | 98 | 1017.2 |
| 20260508114149 | 50 | 135 | 3.0 | 3.0 | 0.00 | 0.00 | 0.00 | 98 | 1017.0 |
| 20260508113646 | 50 | 103 | 1.0 | 2.0 | 0.00 | 0.00 | 0.00 | 98 | 1017.0 |
| 20260508113144 | 49 | 45 | 2.0 | 2.0 | 0.00 | 0.00 | 0.00 | 97 | 1017.2 |
| 20260508112640 | 49 | 112 | 1.0 | 2.0 | 0.00 | 0.00 | 0.00 | 97 | 1017.0 |
| 20260508112137 | 49 | 111 | 2.0 | 2.0 | 0.00 | 0.00 | 0.00 | 97 | 1017.1 |
| 20260508111633 | 49 | 82 | 1.0 | 2.0 | 0.00 | 0.00 | 0.00 | 97 | 1016.9 |
| 20260508111131 | 49 | 72 | 2.0 | 3.0 | 0.00 | 0.00 | 0.00 | 97 | 1016.7 |
| 20260508110629 | 49 | 56 | 2.0 | 2.0 | 0.00 | 0.00 | 0.00 | 97 | 1016.9 |
| 20260508110125 | 49 | 36 | 2.0 | 3.0 | 0.00 | 0.00 | 0.00 | 97 | 1016.4 |
| 20260508105620 | 49 | 73 | 2.0 | 2.0 | 0.00 | 0.00 | 0.00 | 97 | 1016.5 |
| 20260508105117 | 49 | 84 | 0.0 | 2.0 | 0.00 | 0.00 | 0.00 | 97 | 1016.3 |
| 20260508104615 | 49 | 87 | 1.0 | 2.0 | 0.00 | 0.00 | 0.00 | 97 | 1016.4 |
| 20260508104111 | 49 | 92 | 2.0 | 2.0 | 0.00 | 0.00 | 0.00 | 97 | 1016.2 |
| 20260508103609 | 49 | 88 | 2.0 | 3.0 | 0.00 | 0.00 | 0.00 | 97 | 1016.0 |
| 20260508103106 | 49 | 71 | 2.0 | 3.0 | 0.00 | 0.00 | 0.00 | 97 | 1015.9 |
| 20260508102603 | 49 | 40 | 2.0 | 3.0 | 0.00 | 0.00 | 0.00 | 97 | 1015.7 |
| 20260508102101 | 49 | 19 | 2.0 | 4.0 | 0.00 | 0.00 | 0.00 | 97 | 1015.6 |
| 20260508101558 | 49 | 40 | 2.0 | 2.0 | 0.00 | 0.00 | 0.00 | 97 | 1015.7 |
| 20260508101055 | 49 | 68 | 2.0 | 2.0 | 0.00 | 0.00 | 0.00 | 97 | 1015.5 |
| 20260508100553 | 49 | 94 | 1.0 | 2.0 | 0.00 | 0.00 | 0.00 | 97 | 1015.6 |
| 20260508100049 | 49 | 105 | 1.0 | 2.0 | 0.00 | 0.00 | 0.00 | 96 | 1015.5 |
| 20260508095547 | 49 | 85 | 1.0 | 3.0 | 0.00 | 0.00 | 0.00 | 96 | 1015.6 |
| 20260508095043 | 50 | 110 | 2.0 | 3.0 | 0.00 | 0.00 | 0.00 | 97 | 1015.7 |
| 20260508094541 | 50 | 64 | 2.0 | 2.0 | 0.00 | 0.00 | 0.00 | 96 | 1015.7 |
| 20260508094038 | 50 | 113 | 0.0 | 1.0 | 0.00 | 0.00 | 0.00 | 96 | 1015.6 |
| 20260508093535 | 50 | 124 | 0.0 | 2.0 | 0.00 | 0.00 | 0.00 | 96 | 1015.4 |
| 20260508093033 | 50 | 107 | 1.0 | 2.0 | 0.00 | 0.00 | 0.00 | 96 | 1015.4 |
| 20260508092530 | 50 | 122 | 1.0 | 2.0 | 0.00 | 0.00 | 0.00 | 96 | 1015.5 |
| 20260508092029 | 50 | 96 | 2.0 | 2.0 | 0.00 | 0.00 | 0.00 | 96 | 1015.3 |
| 20260508091525 | 50 | 87 | 1.0 | 2.0 | 0.00 | 0.00 | 0.00 | 96 | 1015.1 |